Waarnemingen

Advertentie
Mijn weer
P11-B, Nederland (6203): temperatuur & dauwpunt: 18.02.2017 16:00:00 - 24.02.2017 16:00:00 (CET)P11-B, Nederland (6203): windsnelheid & windstoten: 18.02.2017 16:00:00 - 24.02.2017 16:00:00 (CET)P11-B, Nederland (6203): windrichting: 18.02.2017 16:00:00 - 24.02.2017 16:00:00 (CET)P11-B, Nederland (6203): luchtdruk: 18.02.2017 16:00:00 - 24.02.2017 16:00:00 (CET)P11-B, Nederland (6203): zicht: 18.02.2017 16:00:00 - 24.02.2017 16:00:00 (CET)
Datum & Tijd tt [°C] td [°C] ff [km/u] ff [kn] fx [km/u] fx [kn] dd ppp [hPa] vv [km]
24.02.2017 16:00:00 6,3 2,7 16 9 25 14 W 1016,7 10
24.02.2017 15:00:00 6,4 2,5 21 11 25 14 - 1016,0 10
24.02.2017 14:00:00 6,3 2,6 16 9 22 12 W 1015,7 10
24.02.2017 13:00:00 5,8 2,6 18 10 25 14 - 1015,0 10
24.02.2017 12:00:00 5,1 2,2 15 8 25 14 - 1014,5 10
24.02.2017 11:00:00 4,5 1,5 29 16 36 19 - 1013,7 10
24.02.2017 10:00:00 5,7 2,6 18 10 29 16 W 1012,7 10
24.02.2017 09:00:00 4,1 1,3 24 13 43 23 WNW 1011,9 4,6
24.02.2017 08:00:00 5,0 0,9 29 16 36 19 NNW 1010,4 10
24.02.2017 07:00:00 5,6 1,6 28 15 36 19 W 1009,2 10
24.02.2017 06:00:00 5,6 2,2 26 14 36 19 W 1008,4 10
24.02.2017 05:00:00 5,1 1,3 37 20 47 25 NW 1006,9 10
24.02.2017 04:00:00 6,1 2,4 42 23 47 25 W 1005,9 10
24.02.2017 03:00:00 6,1 2,3 34 18 47 25 W 1004,8 10
24.02.2017 02:00:00 5,8 1,8 44 24 58 31 WNW 1003,4 10
24.02.2017 01:00:00 5,3 1,9 37 20 54 29 W 1002,0 10
24.02.2017 00:00:00 6,0 3,0 39 21 68 37 WNW 999,9 10
23.02.2017 23:00:00 6,1 2,8 57 31 76 41 NW 997,7 10
23.02.2017 22:00:00 5,6 3,1 74 40 90 49 NW 994,7 8
23.02.2017 21:00:00 5,5 2,5 76 41 104 56 W 989,8 10
23.02.2017 20:00:00 6,0 2,2 87 47 108 58 - 986,2 10
23.02.2017 19:00:00 7,4 2,0 81 44 104 56 - 985,8 10
23.02.2017 18:00:00 8,1 2,0 94 51 112 60 WZW 984,4 4,9
23.02.2017 17:00:00 8,2 2,3 98 53 104 56 WZW 983,2 10
23.02.2017 16:00:00 7,8 3,3 106 57 108 58 WZW 983,4 5
23.02.2017 15:00:00 8,9 3,2 91 49 94 51 ZW 983,2 10
23.02.2017 14:00:00 8,9 4,0 78 42 79 43 ZW 984,1 10
23.02.2017 13:00:00 9,1 5,6 74 40 76 41 ZW 985,1 10
23.02.2017 12:00:00 8,9 7,4 91 49 90 49 ZZW 985,9 5
23.02.2017 11:00:00 8,4 7,5 76 41 83 45 ZZW 987,1 6
23.02.2017 10:00:00 8,0 7,4 68 37 72 39 ZZW 989,7 6
23.02.2017 09:00:00 8,1 7,3 72 39 76 41 ZZW 992,3 8
23.02.2017 08:00:00 8,4 7,7 59 32 61 33 ZZW 993,8 7
23.02.2017 07:00:00 8,1 7,5 63 34 65 35 ZZW 996,1 6
23.02.2017 06:00:00 8,2 7,2 61 33 61 33 ZZW 996,7 5
23.02.2017 05:00:00 8,2 7,1 55 30 58 31 ZZW 997,7 4,1
23.02.2017 04:00:00 7,9 6,9 11 6 25 14 ZO 1000,1 3,7
23.02.2017 03:00:00 7,0 6,8 8 4 14 8 ZW 1002,0 5
23.02.2017 02:00:00 7,6 7,1 15 8 22 12 WZW 1003,1 10
23.02.2017 01:00:00 8,0 7,3 18 10 29 16 W 1003,9 10
23.02.2017 00:00:00 8,2 7,6 31 17 36 19 W 1004,2 6
22.02.2017 23:00:00 8,5 7,5 39 21 40 21 WZW 1004,4 6
22.02.2017 22:00:00 8,3 7,3 41 22 40 21 WZW 1004,4 10
22.02.2017 21:00:00 8,3 7,1 39 21 43 23 ZW 1004,6 10
22.02.2017 20:00:00 8,0 6,8 39 21 40 21 ZW 1004,7 10
22.02.2017 19:00:00 8,4 6,9 41 22 40 21 ZW 1004,5 10
22.02.2017 18:00:00 8,2 6,8 42 23 43 23 ZW 1004,3 10
22.02.2017 17:00:00 8,3 7,1 41 22 43 23 WZW 1004,6 10
22.02.2017 16:00:00 8,3 7,3 37 20 43 23 WZW 1004,4 8
22.02.2017 15:00:00 7,7 6,5 28 15 32 18 W 1004,7 5
22.02.2017 14:00:00 8,0 6,6 29 16 50 27 W 1004,8 4,7
22.02.2017 13:00:00 8,5 7,3 46 25 58 31 - 1005,1 10
22.02.2017 12:00:00 8,9 7,1 61 33 61 33 ZW 1004,4 10
22.02.2017 11:00:00 9,2 7,3 65 35 61 33 ZW 1004,5 10
22.02.2017 10:00:00 9,0 7,0 59 32 58 31 ZW 1004,4 10
22.02.2017 09:00:00 9,2 7,1 55 30 54 29 WZW 1004,6 10
22.02.2017 08:00:00 9,0 6,9 57 31 58 31 WZW 1004,4 10
22.02.2017 07:00:00 8,8 6,9 55 30 58 31 ZW 1004,3 10
22.02.2017 06:00:00 9,1 7,0 61 33 65 35 ZW 1004,4 10
22.02.2017 05:00:00 9,1 7,1 63 34 65 35 ZW 1004,2 10
22.02.2017 04:00:00 9,0 7,0 65 35 65 35 ZW 1004,6 10
22.02.2017 03:00:00 9,0 7,2 65 35 68 37 ZW 1005,0 10
22.02.2017 02:00:00 9,2 7,5 70 38 68 37 ZW 1005,4 9
22.02.2017 01:00:00 9,1 7,6 68 37 68 37 ZW 1006,0 10
22.02.2017 00:00:00 9,0 7,6 63 34 61 33 ZW 1006,8 10
21.02.2017 23:00:00 8,8 7,8 57 31 58 31 ZW 1007,6 9
21.02.2017 22:00:00 8,5 7,6 50 27 50 27 ZW 1008,6 8
21.02.2017 21:00:00 8,3 7,3 52 28 50 27 ZZW 1009,0 5
21.02.2017 20:00:00 8,0 7,0 50 27 50 27 ZZW 1009,9 8
21.02.2017 19:00:00 8,2 7,1 42 23 43 23 ZZW 1011,0 9
21.02.2017 18:00:00 7,8 6,7 37 20 36 19 ZZW 1012,0 10
21.02.2017 17:00:00 7,8 6,3 34 18 32 18 ZZW 1012,8 9
21.02.2017 16:00:00 7,6 5,7 28 15 40 21 ZZW 1014,0 10
21.02.2017 15:00:00 7,8 5,5 24 13 25 14 ZW 1015,0 10
21.02.2017 14:00:00 7,7 5,3 21 11 25 14 WZW 1015,5 10
21.02.2017 13:00:00 7,6 4,7 21 11 22 12 W 1016,2 10
21.02.2017 12:00:00 8,0 4,8 24 13 25 14 - 1016,1 10
21.02.2017 11:00:00 8,1 4,6 24 13 29 16 W 1016,1 10
21.02.2017 10:00:00 7,8 5,0 24 13 29 16 W 1015,9 10
21.02.2017 09:00:00 8,2 5,5 29 16 40 21 W 1015,4 10
21.02.2017 08:00:00 9,0 6,2 37 20 40 21 W 1014,4 10
21.02.2017 07:00:00 8,7 6,9 35 19 36 19 W 1014,1 10
21.02.2017 06:00:00 8,9 7,1 34 18 36 19 W 1013,9 10
21.02.2017 05:00:00 8,6 6,9 34 18 40 21 WZW 1014,0 10
21.02.2017 04:00:00 8,7 7,2 34 18 40 21 W 1014,3 10
21.02.2017 03:00:00 8,8 6,8 37 20 40 21 WZW 1014,2 10
21.02.2017 02:00:00 9,8 7,3 35 19 40 21 W 1014,4 10
21.02.2017 01:00:00 9,5 7,7 37 20 36 19 W 1014,6 10
21.02.2017 00:00:00 9,3 7,1 35 19 43 23 W 1014,4 10
20.02.2017 23:00:00 9,9 7,6 42 23 43 23 W 1014,1 10
20.02.2017 22:00:00 9,7 7,8 35 19 40 21 W 1014,2 10
20.02.2017 21:00:00 10,1 7,9 42 23 47 25 W 1013,7 10
20.02.2017 20:00:00 10,5 8,1 44 24 47 25 WZW 1013,3 10
20.02.2017 19:00:00 9,8 7,8 48 26 47 25 WZW 1012,9 10
20.02.2017 18:00:00 9,5 7,7 50 27 50 27 WZW 1012,8 10
20.02.2017 17:00:00 9,6 7,9 54 29 54 29 ZW 1012,6 10
20.02.2017 16:00:00 9,4 8,2 50 27 50 27 ZW 1012,8 10
20.02.2017 15:00:00 8,6 7,6 44 24 47 25 ZW 1013,4 7
20.02.2017 14:00:00 8,5 7,6 46 25 50 27 ZW 1013,7 6
20.02.2017 13:00:00 8,3 7,4 44 24 47 25 ZW 1014,0 6
20.02.2017 12:00:00 8,4 7,5 48 26 50 27 ZW 1014,9 5
20.02.2017 11:00:00 8,2 7,4 46 25 47 25 WZW 1015,1 4,9
20.02.2017 10:00:00 8,2 7,3 46 25 47 25 ZW 1015,4 4,7
20.02.2017 09:00:00 8,0 7,1 48 26 50 27 ZW 1015,7 6
20.02.2017 08:00:00 8,0 7,1 46 25 47 25 ZW 1015,4 5
20.02.2017 07:00:00 7,8 6,9 44 24 43 23 ZW 1015,7 2,8
20.02.2017 06:00:00 7,8 6,7 44 24 47 25 ZW 1015,8 4,5
20.02.2017 05:00:00 7,9 6,6 37 20 40 21 ZW 1016,6 7
20.02.2017 04:00:00 7,9 6,4 39 21 40 21 ZW 1016,9 10
20.02.2017 03:00:00 8,2 6,3 41 22 40 21 ZW 1017,4 10
20.02.2017 02:00:00 7,7 5,8 39 21 40 21 ZZW 1018,3 10
20.02.2017 01:00:00 7,8 6,1 35 19 36 19 ZZW 1018,7 10
20.02.2017 00:00:00 8,0 6,3 37 20 40 21 WZW 1019,8 10
19.02.2017 23:00:00 8,0 6,0 35 19 32 18 WZW 1020,1 10
19.02.2017 22:00:00 7,9 6,1 35 19 32 18 ZW 1019,9 10
19.02.2017 21:00:00 7,7 5,8 31 17 29 16 ZW 1020,2 10
19.02.2017 20:00:00 7,4 5,5 24 13 29 16 ZW 1020,5 10
19.02.2017 19:00:00 7,7 5,8 26 14 25 14 WZW 1020,5 10
19.02.2017 18:00:00 7,6 5,9 28 15 29 16 WZW 1020,0 10
19.02.2017 17:00:00 7,7 6,0 28 15 29 16 WZW 1019,9 10
19.02.2017 16:00:00 7,6 6,0 29 16 29 16 W 1020,1 10
19.02.2017 15:00:00 7,5 5,8 29 16 29 16 W 1020,1 10
19.02.2017 14:00:00 7,5 5,8 28 15 32 18 W 1020,0 9
19.02.2017 13:00:00 7,4 5,6 31 17 36 19 W 1020,2 9
19.02.2017 12:00:00 7,5 5,8 29 16 32 18 W 1020,5 9
19.02.2017 11:00:00 7,2 5,3 31 17 36 19 WZW 1020,2 6
19.02.2017 10:00:00 7,2 5,1 39 21 43 23 WZW 1020,2 7
19.02.2017 09:00:00 7,3 5,1 41 22 40 21 WZW 1020,0 8
19.02.2017 08:00:00 7,4 5,2 37 20 40 21 WZW 1019,6 7
19.02.2017 07:00:00 7,3 4,9 46 25 47 25 ZW 1019,4 7
19.02.2017 06:00:00 7,3 4,8 48 26 47 25 ZW 1019,9 8
19.02.2017 05:00:00 7,4 4,8 42 23 43 23 ZW 1020,2 9
19.02.2017 04:00:00 7,3 5,4 41 22 40 21 ZW 1020,9 7
19.02.2017 03:00:00 7,0 5,2 41 22 43 23 ZZW 1020,8 6
19.02.2017 02:00:00 7,2 5,2 44 24 43 23 ZZW 1021,4 7
19.02.2017 01:00:00 7,1 5,2 39 21 40 21 ZZW 1022,1 6
19.02.2017 00:00:00 7,3 5,3 39 21 40 21 ZZW 1022,5 9
18.02.2017 23:00:00 7,0 5,4 37 20 40 21 ZZW 1022,8 10
18.02.2017 22:00:00 6,7 5,5 39 21 36 19 ZZW 1023,0 10
18.02.2017 21:00:00 6,8 6,2 26 14 25 14 ZZW 1023,5 4,2
18.02.2017 20:00:00 5,4 5,2 22 12 29 16 ZZW 1023,9 0,4
18.02.2017 19:00:00 6,0 5,5 31 17 32 18 ZZW 1024,1 3,3
18.02.2017 18:00:00 5,3 4,9 34 18 36 19 ZZW 1024,2 0,8
18.02.2017 17:00:00 4,7 4,4 29 16 32 18 ZZW 1024,2 0,2
18.02.2017 16:00:00 4,6 4,3 25 14 32 18 Z 1024,6 0,2

tt = temperatuur
td = dauwpunt
ff = windsnelheid
fx = windstoten
dd = windrichting
ppp = luchtdruk
vv = zicht

Weerstations in de omgeving